Powrót do katalogu

CZ-6A DEB

AktywnyPO
NORAD 54565·DEBRIS·🇨🇳 China

Wystrzelony Nov 11, 2022 z Taiyuan Satellite Launch Center

Loading…

Następne Przeloty (najbliższe 24 godziny)

TLE

ŚwieżeSource: Space-Track

Epoka: Sep 12, 2026, 15:06 UTC

1 54565U 22151LR  26255.62981636  .00005122  00000-0  83067-3 0  9994
2 54565  98.6256 326.3181 0090464  25.9190 334.6504 14.68963814202881

Śledź CZ-6A DEB w czasie rzeczywistym z AllMySat

Download on the App Store